| time (UTC) | temp F | wind direction | speed knots | gust knots | rain 1hr in | rain 24hr in | rain mn in | humidity % | barometer mb |
| 20260510050037 | 50 | 100 | 0.0 | 0.9 | 0.00 | 0.07 | 0.07 | 92 | 1010.6 |
| 20260510045534 | 50 | 128 | 0.9 | 0.9 | 0.00 | 0.07 | 0.07 | 92 | 1011.2 |
| 20260510045030 | 50 | 176 | 1.7 | 1.7 | 0.05 | 0.07 | 0.07 | 92 | 1010.7 |
| 20260510044527 | 51 | 15 | 2.6 | 2.6 | 0.12 | 0.07 | 0.07 | 92 | 1010.7 |
| 20260510044025 | 51 | 130 | 1.7 | 1.7 | 0.12 | 0.06 | 0.06 | 91 | 1010.5 |
| 20260510043520 | 51 | 151 | 0.0 | 0.9 | 0.12 | 0.05 | 0.05 | 91 | 1010.9 |
| 20260510043015 | 51 | 178 | 0.9 | 0.9 | 0.14 | 0.04 | 0.04 | 91 | 1011.1 |
| 20260510042510 | 51 | 157 | 0.0 | 0.0 | 0.12 | 0.03 | 0.03 | 91 | 1011.0 |
| 20260510042005 | 51 | 206 | 1.7 | 1.7 | 0.05 | 0.02 | 0.02 | 90 | 1011.0 |
| 20260510041503 | 51 | 282 | 1.7 | 2.6 | 0.00 | 0.01 | 0.01 | 91 | 1011.2 |
| 20260510041000 | 52 | 278 | 2.6 | 2.6 | 0.07 | 0.01 | 0.01 | 91 | 1011.0 |
| 20260510040456 | 52 | 281 | 1.7 | 1.7 | 0.07 | 0.01 | 0.01 | 91 | 1011.1 |
| 20260510035952 | 52 | 254 | 1.7 | 2.6 | 0.00 | 0.29 | 0.29 | 91 | 1011.0 |
| 20260510035449 | 52 | 281 | 2.6 | 2.6 | 0.00 | 0.29 | 0.29 | 91 | 1010.6 |
| 20260510034948 | 52 | 211 | 0.9 | 1.7 | 0.00 | 0.29 | 0.29 | 91 | 1010.7 |
| 20260510034447 | 52 | 200 | 1.7 | 1.7 | 0.00 | 0.29 | 0.29 | 91 | 1010.9 |
| 20260510033943 | 51 | 268 | 2.6 | 2.6 | 0.00 | 0.29 | 0.29 | 91 | 1010.7 |
| 20260510033439 | 51 | 182 | 0.9 | 0.9 | 0.00 | 0.29 | 0.29 | 91 | 1010.1 |
| 20260510032937 | 51 | 142 | 0.9 | 0.9 | 0.00 | 0.29 | 0.29 | 91 | 1009.6 |
| 20260510032433 | 51 | 135 | 2.6 | 2.6 | 0.00 | 0.29 | 0.29 | 91 | 1009.1 |
| 20260510031928 | 51 | 120 | 2.6 | 2.6 | 0.00 | 0.29 | 0.29 | 91 | 1009.4 |
| 20260510031424 | 51 | 130 | 2.6 | 4.3 | 0.00 | 0.29 | 0.29 | 91 | 1009.5 |
| 20260510030919 | 51 | 130 | 2.6 | 2.6 | 0.00 | 0.29 | 0.29 | 91 | 1009.6 |
| 20260510030415 | 51 | 125 | 1.7 | 1.7 | 0.00 | 0.29 | 0.29 | 91 | 1009.7 |
| 20260510025913 | 51 | 124 | 2.6 | 2.6 | 0.00 | 0.29 | 0.29 | 91 | 1009.6 |
| 20260510025410 | 51 | 126 | 1.7 | 1.7 | 0.00 | 0.29 | 0.29 | 91 | 1009.6 |
| 20260510024908 | 52 | 142 | 1.7 | 2.6 | 0.00 | 0.29 | 0.29 | 91 | 1009.5 |
| 20260510024404 | 51 | 128 | 1.7 | 1.7 | 0.00 | 0.29 | 0.29 | 91 | 1009.4 |
| 20260510023900 | 51 | 133 | 0.0 | 0.0 | 0.00 | 0.29 | 0.29 | 91 | 1009.5 |
| 20260510023356 | 51 | 137 | 0.9 | 0.9 | 0.00 | 0.29 | 0.29 | 91 | 1009.4 |
| 20260510022848 | 52 | 140 | 0.0 | 0.0 | 0.00 | 0.29 | 0.29 | 91 | 1009.2 |
| 20260510022347 | 51 | 121 | 2.6 | 2.6 | 0.00 | 0.29 | 0.29 | 91 | 1009.2 |
| 20260510021846 | 52 | 158 | 1.7 | 1.7 | 0.00 | 0.29 | 0.29 | 91 | 1008.9 |
| 20260510021345 | 52 | 117 | 2.6 | 2.6 | 0.00 | 0.29 | 0.29 | 91 | 1008.9 |
| 20260510020841 | 52 | 113 | 3.5 | 5.2 | 0.00 | 0.29 | 0.29 | 91 | 1008.9 |
| 20260510020341 | 52 | 119 | 1.7 | 2.6 | 0.00 | 0.29 | 0.29 | 91 | 1008.9 |
| 20260510015837 | 52 | 152 | 2.6 | 2.6 | 0.00 | 0.29 | 0.29 | 91 | 1009.0 |
| 20260510015333 | 52 | 124 | 2.6 | 2.6 | 0.00 | 0.29 | 0.29 | 90 | 1009.1 |
| 20260510014828 | 52 | 133 | 1.7 | 1.7 | 0.00 | 0.29 | 0.29 | 91 | 1008.9 |
| 20260510014326 | 52 | 140 | 0.9 | 0.9 | 0.00 | 0.29 | 0.29 | 90 | 1008.8 |
| 20260510013821 | 52 | 113 | 5.2 | 5.2 | 0.00 | 0.29 | 0.29 | 91 | 1008.6 |
| 20260510013317 | 52 | 137 | 2.6 | 2.6 | 0.00 | 0.29 | 0.29 | 91 | 1008.7 |
| 20260510012812 | 52 | 114 | 2.6 | 4.3 | 0.00 | 0.29 | 0.29 | 91 | 1008.7 |
| 20260510012312 | 52 | 132 | 2.6 | 4.3 | 0.00 | 0.29 | 0.29 | 91 | 1008.9 |
| 20260510011807 | 52 | 128 | 1.7 | 1.7 | 0.00 | 0.29 | 0.29 | 91 | 1008.9 |
| 20260510011303 | 52 | 130 | 1.7 | 1.7 | 0.00 | 0.29 | 0.29 | 91 | 1008.7 |
| 20260510010800 | 52 | 135 | 1.7 | 1.7 | 0.00 | 0.29 | 0.29 | 90 | 1008.4 |
| 20260510010256 | 53 | 139 | 2.6 | 4.3 | 0.00 | 0.29 | 0.29 | 90 | 1008.3 |
| 20260510005753 | 53 | 117 | 3.5 | 4.3 | 0.00 | 0.29 | 0.29 | 90 | 1008.4 |
| 20260510005249 | 53 | 111 | 4.3 | 5.2 | 0.00 | 0.29 | 0.29 | 90 | 1008.2 |
| 20260510004748 | 53 | 112 | 4.3 | 5.2 | 0.00 | 0.29 | 0.29 | 90 | 1008.5 |
| 20260510004245 | 53 | 128 | 2.6 | 2.6 | 0.00 | 0.29 | 0.29 | 90 | 1008.2 |
| 20260510003742 | 53 | 133 | 0.9 | 1.7 | 0.00 | 0.29 | 0.29 | 90 | 1008.1 |
| 20260510003239 | 53 | 128 | 2.6 | 4.3 | 0.00 | 0.29 | 0.29 | 89 | 1008.1 |
| 20260510002737 | 53 | 118 | 3.5 | 4.3 | 0.00 | 0.29 | 0.29 | 89 | 1008.0 |
| 20260510002235 | 53 | 121 | 2.6 | 2.6 | 0.00 | 0.29 | 0.29 | 89 | 1008.3 |
| 20260510001731 | 53 | 117 | 2.6 | 2.6 | 0.00 | 0.29 | 0.29 | 89 | 1008.4 |
| 20260510001230 | 53 | 125 | 1.7 | 2.6 | 0.00 | 0.29 | 0.29 | 88 | 1008.1 |
| 20260510000726 | 54 | 128 | 2.6 | 2.6 | 0.00 | 0.29 | 0.29 | 88 | 1007.9 |
| 20260510000226 | 54 | 130 | 2.6 | 2.6 | 0.00 | 0.29 | 0.29 | 88 | 1007.9 |
| 20260509235720 | 54 | 134 | 0.9 | 1.7 | 0.00 | 0.29 | 0.29 | 87 | 1007.9 |
| 20260509235216 | 54 | 140 | 0.9 | 0.9 | 0.00 | 0.29 | 0.29 | 87 | 1007.9 |
| 20260509234712 | 55 | 140 | 2.6 | 2.6 | 0.00 | 0.29 | 0.29 | 87 | 1007.8 |
| 20260509234209 | 55 | 143 | 0.9 | 1.7 | 0.00 | 0.29 | 0.29 | 86 | 1007.8 |
| 20260509233708 | 55 | 145 | 0.9 | 1.7 | 0.00 | 0.29 | 0.29 | 86 | 1007.7 |
| 20260509233205 | 55 | 160 | 0.0 | 0.0 | 0.00 | 0.29 | 0.29 | 85 | 1007.7 |
| 20260509232701 | 55 | 126 | 0.9 | 1.7 | 0.00 | 0.29 | 0.29 | 85 | 1007.7 |
| 20260509232158 | 55 | 158 | 0.0 | 0.9 | 0.00 | 0.29 | 0.29 | 85 | 1007.8 |
| 20260509231655 | 56 | 151 | 3.5 | 5.2 | 0.00 | 0.29 | 0.29 | 85 | 1007.4 |
| 20260509231152 | 55 | 177 | 1.7 | 1.7 | 0.00 | 0.29 | 0.29 | 85 | 1007.6 |
| 20260509230649 | 55 | 135 | 1.7 | 1.7 | 0.00 | 0.29 | 0.29 | 85 | 1007.4 |
| 20260509230146 | 56 | 144 | 4.3 | 6.1 | 0.00 | 0.29 | 0.29 | 85 | 1007.8 |
| 20260509225641 | 56 | 157 | 1.7 | 1.7 | 0.00 | 0.29 | 0.29 | 84 | 1008.0 |
| 20260509225137 | 56 | 181 | 2.6 | 2.6 | 0.00 | 0.29 | 0.29 | 85 | 1008.0 |
| 20260509224633 | 55 | 166 | 4.3 | 5.2 | 0.00 | 0.29 | 0.29 | 85 | 1008.1 |
| 20260509224130 | 55 | 171 | 4.3 | 5.2 | 0.00 | 0.29 | 0.29 | 84 | 1007.8 |
| 20260509223627 | 56 | 147 | 2.6 | 2.6 | 0.00 | 0.29 | 0.29 | 84 | 1008.0 |
| 20260509223124 | 56 | 194 | 1.7 | 2.6 | 0.00 | 0.29 | 0.29 | 84 | 1007.9 |
| 20260509222621 | 56 | 182 | 0.9 | 0.9 | 0.00 | 0.29 | 0.29 | 84 | 1007.7 |
| 20260509222116 | 56 | 160 | 2.6 | 4.3 | 0.00 | 0.29 | 0.29 | 84 | 1007.8 |
| 20260509221612 | 55 | 176 | 2.6 | 2.6 | 0.00 | 0.29 | 0.29 | 85 | 1007.7 |
| 20260509221108 | 55 | 180 | 3.5 | 5.2 | 0.00 | 0.29 | 0.29 | 85 | 1007.8 |
| 20260509220604 | 56 | 140 | 1.7 | 1.7 | 0.00 | 0.29 | 0.29 | 85 | 1007.7 |
| 20260509215556 | 56 | 184 | 0.9 | 1.7 | 0.00 | 0.29 | 0.29 | 85 | 1007.8 |
| 20260509215054 | 55 | 140 | 1.7 | 2.6 | 0.00 | 0.29 | 0.29 | 85 | 1007.7 |
| 20260509214551 | 55 | 205 | 6.1 | 7.8 | 0.00 | 0.29 | 0.29 | 85 | 1007.9 |
| 20260509214048 | 56 | 178 | 1.7 | 1.7 | 0.00 | 0.29 | 0.29 | 85 | 1008.0 |
| 20260509213544 | 56 | 179 | 0.9 | 1.7 | 0.00 | 0.29 | 0.29 | 86 | 1008.0 |
| 20260509213041 | 55 | 137 | 0.9 | 1.7 | 0.00 | 0.29 | 0.29 | 86 | 1008.1 |
| 20260509212538 | 55 | 178 | 4.3 | 5.2 | 0.00 | 0.29 | 0.29 | 86 | 1008.0 |
| 20260509212035 | 55 | 173 | 1.7 | 1.7 | 0.00 | 0.29 | 0.29 | 86 | 1008.1 |
| 20260509211530 | 55 | 127 | 2.6 | 2.6 | 0.00 | 0.29 | 0.29 | 86 | 1008.2 |
| 20260509211027 | 55 | 120 | 2.6 | 4.3 | 0.00 | 0.29 | 0.29 | 86 | 1008.3 |
| 20260509210524 | 55 | 172 | 0.9 | 0.9 | 0.00 | 0.29 | 0.29 | 86 | 1008.3 |
| 20260509210020 | 55 | 197 | 6.1 | 7.8 | 0.00 | 0.29 | 0.29 | 86 | 1008.1 |
| 20260509205514 | 55 | 239 | 4.3 | 6.1 | 0.00 | 0.29 | 0.29 | 87 | 1008.3 |
| 20260509205010 | 55 | 191 | 2.6 | 4.3 | 0.00 | 0.29 | 0.29 | 87 | 1008.4 |
| 20260509204507 | 55 | 228 | 3.5 | 4.3 | 0.00 | 0.29 | 0.29 | 87 | 1008.5 |
| 20260509204003 | 54 | 169 | 4.3 | 5.2 | 0.00 | 0.29 | 0.29 | 87 | 1008.6 |
| 20260509203459 | 54 | 145 | 3.5 | 4.3 | 0.00 | 0.29 | 0.29 | 87 | 1008.5 |
| 20260509202957 | 54 | 168 | 1.7 | 1.7 | 0.00 | 0.29 | 0.29 | 87 | 1008.5 |
| 20260509202452 | 54 | 226 | 5.2 | 7.0 | 0.00 | 0.29 | 0.29 | 87 | 1008.6 |
| 20260509201948 | 54 | 234 | 4.3 | 5.2 | 0.00 | 0.29 | 0.29 | 88 | 1008.5 |
| 20260509201443 | 54 | 183 | 5.2 | 8.7 | 0.00 | 0.29 | 0.29 | 88 | 1008.6 |
| 20260509200940 | 54 | 162 | 3.5 | 4.3 | 0.00 | 0.29 | 0.29 | 88 | 1008.8 |
| 20260509200440 | 53 | 227 | 2.6 | 2.6 | 0.00 | 0.29 | 0.29 | 88 | 1008.8 |
| 20260509195937 | 53 | 200 | 2.6 | 2.6 | 0.00 | 0.29 | 0.29 | 89 | 1008.8 |
| 20260509195433 | 53 | 222 | 4.3 | 6.1 | 0.00 | 0.29 | 0.29 | 89 | 1009.2 |
| 20260509194932 | 53 | 147 | 2.6 | 4.3 | 0.00 | 0.29 | 0.29 | 89 | 1008.9 |
| 20260509194428 | 53 | 182 | 0.9 | 0.9 | 0.00 | 0.29 | 0.29 | 89 | 1008.8 |
| 20260509193926 | 53 | 187 | 0.0 | 0.9 | 0.00 | 0.29 | 0.29 | 89 | 1009.0 |
| 20260509193425 | 53 | 170 | 0.9 | 1.7 | 0.00 | 0.29 | 0.29 | 90 | 1009.0 |
| 20260509192921 | 53 | 181 | 0.9 | 0.9 | 0.00 | 0.29 | 0.29 | 90 | 1008.8 |
| 20260509192418 | 53 | 182 | 2.6 | 2.6 | 0.00 | 0.29 | 0.29 | 91 | 1009.1 |
| 20260509191913 | 53 | 181 | 1.7 | 2.6 | 0.00 | 0.29 | 0.29 | 91 | 1009.4 |
| 20260509191409 | 53 | 144 | 0.9 | 0.9 | 0.00 | 0.29 | 0.29 | 92 | 1009.1 |
| 20260509190905 | 52 | 175 | 3.5 | 4.3 | 0.00 | 0.29 | 0.29 | 92 | 1009.4 |
| 20260509190402 | 52 | 171 | 0.0 | 0.9 | 0.00 | 0.29 | 0.29 | 93 | 1009.4 |
| 20260509185900 | 51 | 195 | 2.6 | 2.6 | 0.00 | 0.29 | 0.29 | 93 | 1009.3 |
| 20260509185356 | 51 | 168 | 3.5 | 4.3 | 0.00 | 0.29 | 0.29 | 93 | 1009.5 |
| 20260509184853 | 51 | 198 | 1.7 | 1.7 | 0.00 | 0.29 | 0.29 | 94 | 1009.5 |
| 20260509184350 | 51 | 174 | 0.0 | 0.0 | 0.00 | 0.29 | 0.29 | 94 | 1009.4 |
| 20260509183847 | 51 | 181 | 2.6 | 2.6 | 0.00 | 0.29 | 0.29 | 94 | 1009.3 |
| 20260509183342 | 52 | 193 | 3.5 | 4.3 | 0.00 | 0.29 | 0.29 | 94 | 1009.3 |
| 20260509182838 | 51 | 189 | 0.9 | 1.7 | 0.00 | 0.29 | 0.29 | 94 | 1009.5 |
| 20260509182336 | 51 | 192 | 2.6 | 2.6 | 0.00 | 0.29 | 0.29 | 95 | 1009.5 |
| 20260509181833 | 51 | 178 | 2.6 | 2.6 | 0.00 | 0.29 | 0.29 | 95 | 1009.2 |
| 20260509181330 | 51 | 154 | 0.9 | 1.7 | 0.00 | 0.29 | 0.29 | 95 | 1009.4 |
| 20260509180827 | 51 | 163 | 1.7 | 1.7 | 0.00 | 0.29 | 0.29 | 95 | 1009.4 |
| 20260509180323 | 51 | 172 | 0.9 | 0.9 | 0.00 | 0.29 | 0.29 | 95 | 1009.3 |
| 20260509175820 | 51 | 165 | 0.0 | 0.0 | 0.00 | 0.29 | 0.29 | 95 | 1009.1 |
| 20260509175316 | 51 | 190 | 0.9 | 1.7 | 0.00 | 0.29 | 0.29 | 95 | 1009.5 |
| 20260509174812 | 51 | 154 | 1.7 | 1.7 | 0.00 | 0.29 | 0.29 | 95 | 1009.1 |
| 20260509174307 | 51 | 189 | 3.5 | 4.3 | 0.00 | 0.29 | 0.29 | 95 | 1009.3 |
| 20260509173804 | 51 | 167 | 0.0 | 0.0 | 0.00 | 0.29 | 0.29 | 95 | 1009.3 |
| 20260509173254 | 51 | 162 | 0.0 | 0.0 | 0.00 | 0.29 | 0.29 | 95 | 1009.5 |
| 20260509172750 | 51 | 173 | 0.9 | 0.9 | 0.00 | 0.29 | 0.29 | 95 | 1009.5 |
| 20260509172247 | 51 | 149 | 2.6 | 2.6 | 0.00 | 0.29 | 0.29 | 95 | 1009.3 |
| 20260509171743 | 51 | 181 | 4.3 | 5.2 | 0.00 | 0.29 | 0.29 | 95 | 1009.1 |
| 20260509171239 | 51 | 165 | 0.0 | 0.9 | 0.00 | 0.29 | 0.29 | 95 | 1009.3 |
| 20260509170736 | 51 | 157 | 3.5 | 5.2 | 0.00 | 0.29 | 0.29 | 95 | 1009.3 |
| 20260509170232 | 50 | 125 | 2.6 | 2.6 | 0.00 | 0.29 | 0.29 | 95 | 1009.1 |
| 20260509165730 | 50 | 196 | 0.9 | 1.7 | 0.00 | 0.29 | 0.29 | 95 | 1009.2 |
| 20260509165225 | 50 | 162 | 1.7 | 1.7 | 0.00 | 0.29 | 0.29 | 95 | 1009.3 |
| 20260509164722 | 50 | 137 | 2.6 | 2.6 | 0.00 | 0.29 | 0.29 | 95 | 1009.4 |
| 20260509164218 | 50 | 205 | 1.7 | 1.7 | 0.00 | 0.29 | 0.29 | 95 | 1009.5 |
| 20260509163715 | 50 | 164 | 0.0 | 0.0 | 0.00 | 0.29 | 0.29 | 95 | 1009.6 |
| 20260509163212 | 51 | 170 | 0.9 | 0.9 | 0.00 | 0.29 | 0.29 | 95 | 1009.5 |
| 20260509162709 | 51 | 118 | 4.3 | 5.2 | 0.00 | 0.29 | 0.29 | 95 | 1009.4 |
| 20260509162205 | 51 | 172 | 2.6 | 2.6 | 0.00 | 0.29 | 0.29 | 95 | 1009.5 |
| 20260509161700 | 50 | 134 | 0.9 | 1.7 | 0.05 | 0.29 | 0.29 | 95 | 1009.6 |
| 20260509161156 | 50 | 168 | 2.6 | 2.6 | 0.05 | 0.29 | 0.29 | 95 | 1010.0 |
| 20260509160652 | 50 | 159 | 1.7 | 1.7 | 0.00 | 0.28 | 0.28 | 95 | 1009.8 |
| 20260509160148 | 50 | 148 | 0.9 | 0.9 | 0.00 | 0.28 | 0.28 | 95 | 1009.7 |
| 20260509155644 | 50 | 181 | 2.6 | 5.2 | 0.07 | 0.28 | 0.28 | 95 | 1009.8 |
| 20260509155140 | 50 | 126 | 2.6 | 2.6 | 0.07 | 0.28 | 0.28 | 95 | 1009.7 |
| 20260509154636 | 50 | 171 | 2.6 | 4.3 | 0.00 | 0.27 | 0.27 | 95 | 1010.0 |
| 20260509154133 | 50 | 126 | 3.5 | 4.3 | 0.00 | 0.27 | 0.27 | 95 | 1010.0 |
| 20260509153630 | 50 | 159 | 3.5 | 4.3 | 0.00 | 0.27 | 0.27 | 95 | 1010.0 |
| 20260509153127 | 50 | 155 | 2.6 | 2.6 | 0.00 | 0.27 | 0.27 | 95 | 1010.0 |
| 20260509152623 | 50 | 138 | 6.1 | 7.0 | 0.00 | 0.27 | 0.27 | 95 | 1009.7 |
| 20260509152121 | 50 | 111 | 4.3 | 5.2 | 0.00 | 0.27 | 0.27 | 95 | 1009.7 |
| 20260509151617 | 50 | 155 | 4.3 | 5.2 | 0.00 | 0.27 | 0.27 | 95 | 1010.1 |
| 20260509151114 | 50 | 152 | 4.3 | 5.2 | 0.05 | 0.27 | 0.27 | 95 | 1010.1 |
| 20260509150612 | 50 | 171 | 4.3 | 6.1 | 0.05 | 0.27 | 0.27 | 95 | 1010.2 |
| 20260509150110 | 50 | 135 | 2.6 | 2.6 | 0.00 | 0.26 | 0.26 | 95 | 1010.5 |
| 20260509145605 | 50 | 141 | 4.3 | 5.2 | 0.00 | 0.26 | 0.26 | 95 | 1010.4 |
| 20260509145101 | 49 | 148 | 3.5 | 4.3 | 0.07 | 0.26 | 0.26 | 95 | 1010.4 |
| 20260509144558 | 49 | 94 | 4.3 | 5.2 | 0.07 | 0.26 | 0.26 | 95 | 1010.4 |
| 20260509144055 | 49 | 141 | 3.5 | 5.2 | 0.00 | 0.25 | 0.25 | 95 | 1010.4 |
| 20260509143552 | 49 | 114 | 3.5 | 4.3 | 0.00 | 0.25 | 0.25 | 95 | 1010.4 |
| 20260509143050 | 49 | 167 | 1.7 | 1.7 | 0.05 | 0.25 | 0.25 | 95 | 1010.5 |
| 20260509142545 | 49 | 141 | 2.6 | 2.6 | 0.05 | 0.25 | 0.25 | 95 | 1010.6 |
| 20260509142041 | 49 | 168 | 0.9 | 1.7 | 0.00 | 0.24 | 0.24 | 95 | 1010.7 |
| 20260509141538 | 49 | 134 | 1.7 | 2.6 | 0.07 | 0.24 | 0.24 | 95 | 1010.6 |
| 20260509141035 | 49 | 142 | 2.6 | 4.3 | 0.07 | 0.24 | 0.24 | 95 | 1010.6 |
| 20260509140531 | 49 | 121 | 2.6 | 2.6 | 0.00 | 0.23 | 0.23 | 95 | 1010.8 |
| 20260509140029 | 49 | 140 | 2.6 | 4.3 | 0.00 | 0.23 | 0.23 | 95 | 1010.7 |
| 20260509135526 | 49 | 111 | 2.6 | 2.6 | 0.05 | 0.23 | 0.23 | 95 | 1010.7 |
| 20260509135023 | 49 | 158 | 2.6 | 4.3 | 0.05 | 0.23 | 0.23 | 95 | 1010.7 |
| 20260509134521 | 49 | 123 | 5.2 | 6.1 | 0.07 | 0.22 | 0.22 | 95 | 1010.6 |
| 20260509134018 | 48 | 182 | 3.5 | 4.3 | 0.07 | 0.22 | 0.22 | 95 | 1010.5 |
| 20260509133514 | 48 | 147 | 1.7 | 1.7 | 0.00 | 0.21 | 0.21 | 95 | 1010.7 |
| 20260509133013 | 48 | 140 | 1.7 | 1.7 | 0.05 | 0.21 | 0.21 | 95 | 1010.7 |
| 20260509132511 | 48 | 138 | 1.7 | 1.7 | 0.05 | 0.21 | 0.21 | 95 | 1010.7 |
| 20260509132008 | 48 | 119 | 2.6 | 2.6 | 0.07 | 0.20 | 0.20 | 95 | 1010.8 |
| 20260509131505 | 47 | 165 | 0.0 | 0.0 | 0.07 | 0.20 | 0.20 | 95 | 1010.8 |
| 20260509131001 | 47 | 162 | 0.9 | 0.9 | 0.00 | 0.19 | 0.19 | 95 | 1010.8 |
| 20260509130456 | 48 | 172 | 0.0 | 0.9 | 0.00 | 0.19 | 0.19 | 95 | 1010.7 |
| 20260509125954 | 48 | 150 | 0.9 | 0.9 | 0.07 | 0.19 | 0.19 | 95 | 1010.8 |
| 20260509125450 | 47 | 154 | 0.0 | 0.0 | 0.12 | 0.19 | 0.19 | 95 | 1010.9 |
| 20260509124946 | 47 | 149 | 0.9 | 1.7 | 0.05 | 0.18 | 0.18 | 95 | 1011.0 |
| 20260509124444 | 47 | 128 | 0.0 | 0.0 | 0.07 | 0.17 | 0.17 | 95 | 1011.0 |
| 20260509123941 | 46 | 185 | 0.9 | 0.9 | 0.00 | 0.16 | 0.16 | 95 | 1011.0 |
| 20260509123438 | 45 | 169 | 0.0 | 0.0 | 0.05 | 0.16 | 0.16 | 94 | 1011.1 |
| 20260509122934 | 45 | 170 | 0.0 | 0.0 | 0.12 | 0.16 | 0.16 | 94 | 1011.1 |
| 20260509122431 | 45 | 169 | 0.0 | 0.0 | 0.07 | 0.15 | 0.15 | 94 | 1011.0 |
| 20260509121927 | 45 | 180 | 0.9 | 0.9 | 0.00 | 0.14 | 0.14 | 94 | 1011.1 |
| 20260509121425 | 46 | 162 | 0.0 | 0.0 | 0.05 | 0.14 | 0.14 | 94 | 1011.1 |
| 20260509120923 | 46 | 164 | 0.0 | 0.0 | 0.05 | 0.14 | 0.14 | 94 | 1011.1 |
| 20260509120420 | 46 | 151 | 0.0 | 0.9 | 0.07 | 0.13 | 0.13 | 94 | 1011.3 |
| 20260509115918 | 46 | 152 | 0.0 | 0.0 | 0.12 | 0.13 | 0.13 | 94 | 1011.3 |
| 20260509115415 | 46 | 132 | 0.9 | 0.9 | 0.12 | 0.12 | 0.12 | 94 | 1011.2 |
| 20260509114913 | 46 | 153 | 0.0 | 0.0 | 0.12 | 0.11 | 0.11 | 94 | 1011.2 |
| 20260509114411 | 46 | 161 | 0.0 | 0.0 | 0.12 | 0.10 | 0.10 | 94 | 1011.1 |
| 20260509113911 | 45 | 171 | 0.0 | 0.0 | 0.12 | 0.09 | 0.09 | 94 | 1011.2 |
| 20260509113408 | 44 | 173 | 0.0 | 0.0 | 0.12 | 0.08 | 0.08 | 94 | 1011.0 |
| 20260509112903 | 44 | 175 | 0.0 | 0.0 | 0.14 | 0.07 | 0.07 | 93 | 1011.1 |
| 20260509112401 | 44 | 181 | 0.0 | 0.0 | 0.07 | 0.06 | 0.06 | 93 | 1011.1 |
| 20260509111858 | 45 | 196 | 0.9 | 0.9 | 0.12 | 0.05 | 0.05 | 93 | 1011.0 |
| 20260509111354 | 46 | 162 | 0.9 | 0.9 | 0.12 | 0.04 | 0.04 | 94 | 1011.0 |
| 20260509110853 | 46 | 135 | 1.7 | 1.7 | 0.05 | 0.03 | 0.03 | 94 | 1011.0 |
| 20260509110348 | 45 | 143 | 0.9 | 0.9 | 0.07 | 0.02 | 0.02 | 93 | 1011.0 |
| 20260509105847 | 44 | 118 | 0.0 | 0.0 | 0.07 | 0.02 | 0.02 | 93 | 1010.9 |
| 20260509105345 | 43 | 148 | 0.0 | 0.0 | 0.00 | 0.01 | 0.01 | 93 | 1010.9 |
| 20260509104841 | 42 | 155 | 0.0 | 0.0 | 0.00 | 0.01 | 0.01 | 93 | 1011.0 |
| 20260509104338 | 42 | 155 | 0.0 | 0.0 | 0.00 | 0.01 | 0.01 | 92 | 1011.0 |
| 20260509103836 | 42 | 153 | 0.0 | 0.0 | 0.00 | 0.01 | 0.01 | 92 | 1010.9 |
| 20260509103333 | 42 | 153 | 0.0 | 0.0 | 0.00 | 0.01 | 0.01 | 92 | 1010.8 |
| 20260509102832 | 42 | 157 | 0.0 | 0.0 | 0.00 | 0.01 | 0.01 | 92 | 1011.0 |
| 20260509102328 | 41 | 173 | 0.0 | 0.0 | 0.00 | 0.01 | 0.01 | 92 | 1011.0 |
| 20260509101824 | 41 | 175 | 0.0 | 0.0 | 0.00 | 0.01 | 0.01 | 92 | 1010.9 |
| 20260509101320 | 41 | 174 | 0.9 | 0.9 | 0.00 | 0.01 | 0.01 | 92 | 1011.0 |
| 20260509100818 | 41 | 152 | 0.0 | 0.0 | 0.00 | 0.01 | 0.01 | 92 | 1010.7 |
| 20260509100315 | 41 | 122 | 1.7 | 1.7 | 0.00 | 0.01 | 0.01 | 92 | 1010.9 |
| 20260509095812 | 41 | 148 | 0.9 | 1.7 | 0.00 | 0.01 | 0.01 | 91 | 1011.0 |
| 20260509095309 | 41 | 155 | 0.0 | 0.0 | 0.00 | 0.01 | 0.01 | 91 | 1011.0 |
| 20260509094806 | 41 | 155 | 0.0 | 0.0 | 0.00 | 0.01 | 0.01 | 91 | 1010.9 |
| 20260509094303 | 41 | 154 | 0.0 | 0.0 | 0.00 | 0.01 | 0.01 | 91 | 1010.8 |
| 20260509093801 | 41 | 144 | 0.0 | 0.0 | 0.00 | 0.01 | 0.01 | 91 | 1011.0 |
| 20260509093258 | 41 | 131 | 0.9 | 1.7 | 0.05 | 0.01 | 0.01 | 91 | 1011.0 |
| 20260509092756 | 41 | 167 | 0.0 | 0.0 | 0.05 | 0.01 | 0.01 | 91 | 1011.1 |
| 20260509092254 | 41 | 164 | 0.0 | 0.9 | 0.00 | 0.00 | 0.00 | 91 | 1011.1 |
| 20260509091751 | 41 | 140 | 0.0 | 0.0 | 0.00 | 0.00 | 0.00 | 91 | 1010.9 |
| 20260509091248 | 41 | 144 | 0.9 | 1.7 | 0.00 | 0.00 | 0.00 | 91 | 1011.1 |
| 20260509090745 | 41 | 146 | 0.9 | 0.9 | 0.00 | 0.00 | 0.00 | 90 | 1011.1 |
| 20260509090242 | 40 | 156 | 0.0 | 0.0 | 0.00 | 0.00 | 0.00 | 90 | 1011.2 |
| 20260509085740 | 40 | 155 | 0.0 | 0.0 | 0.00 | 0.00 | 0.00 | 90 | 1011.0 |
| 20260509085237 | 40 | 144 | 0.0 | 0.0 | 0.00 | 0.00 | 0.00 | 90 | 1011.1 |
| 20260509084733 | 40 | 148 | 0.0 | 0.0 | 0.00 | 0.00 | 0.00 | 90 | 1011.1 |
| 20260509084230 | 40 | 170 | 0.9 | 0.9 | 0.00 | 0.00 | 0.00 | 90 | 1011.1 |
| 20260509083728 | 40 | 174 | 0.9 | 1.7 | 0.00 | 0.00 | 0.00 | 90 | 1011.3 |
| 20260509083225 | 40 | 147 | 0.9 | 0.9 | 0.00 | 0.00 | 0.00 | 90 | 1011.3 |
| 20260509082721 | 40 | 130 | 1.7 | 1.7 | 0.00 | 0.00 | 0.00 | 90 | 1011.4 |
| 20260509082218 | 40 | 131 | 1.7 | 1.7 | 0.00 | 0.00 | 0.00 | 90 | 1011.6 |
| 20260509081715 | 40 | 161 | 0.0 | 0.0 | 0.00 | 0.00 | 0.00 | 90 | 1011.7 |
| 20260509081212 | 40 | 155 | 0.9 | 0.9 | 0.00 | 0.00 | 0.00 | 90 | 1011.5 |
| 20260509080711 | 40 | 155 | 0.0 | 0.0 | 0.00 | 0.00 | 0.00 | 90 | 1011.7 |
| 20260509080208 | 40 | 176 | 0.0 | 0.0 | 0.00 | 0.00 | 0.00 | 90 | 1011.6 |
| 20260509075706 | 40 | 176 | 0.0 | 0.0 | 0.00 | 0.00 | 0.00 | 90 | 1011.8 |
| 20260509075203 | 40 | 176 | 0.0 | 0.0 | 0.00 | 0.00 | 0.00 | 90 | 1011.5 |
| 20260509074700 | 40 | 176 | 0.0 | 0.0 | 0.00 | 0.00 | 0.00 | 90 | 1011.5 |
| 20260509074157 | 40 | 176 | 0.0 | 0.0 | 0.00 | 0.00 | 0.00 | 90 | 1011.4 |
| 20260509073654 | 40 | 176 | 0.0 | 0.0 | 0.00 | 0.00 | 0.00 | 89 | 1011.7 |
| 20260509073149 | 40 | 176 | 0.0 | 0.0 | 0.00 | 0.00 | 0.00 | 89 | 1011.7 |
| 20260509072647 | 40 | 176 | 0.0 | 0.0 | 0.00 | 0.00 | 0.00 | 89 | 1011.6 |
| 20260509072143 | 40 | 176 | 0.0 | 0.0 | 0.00 | 0.00 | 0.00 | 89 | 1011.6 |
| 20260509071640 | 40 | 176 | 0.0 | 0.0 | 0.00 | 0.00 | 0.00 | 89 | 1011.7 |
| 20260509071137 | 39 | 176 | 0.0 | 0.0 | 0.00 | 0.00 | 0.00 | 89 | 1011.6 |
| 20260509070634 | 39 | 176 | 0.0 | 0.0 | 0.00 | 0.00 | 0.00 | 89 | 1011.5 |
| 20260509070131 | 39 | 176 | 0.0 | 0.0 | 0.00 | 0.00 | 0.00 | 89 | 1011.5 |
| 20260509065626 | 39 | 176 | 0.0 | 0.0 | 0.00 | 0.00 | 0.00 | 89 | 1011.5 |
| 20260509065123 | 39 | 176 | 0.9 | 0.9 | 0.00 | 0.00 | 0.00 | 89 | 1011.5 |
| 20260509064620 | 40 | 176 | 0.0 | 0.0 | 0.00 | 0.00 | 0.00 | 89 | 1011.7 |
| 20260509064118 | 39 | 176 | 0.0 | 0.0 | 0.00 | 0.00 | 0.00 | 89 | 1011.8 |
| 20260509063614 | 40 | 176 | 0.9 | 0.9 | 0.00 | 0.00 | 0.00 | 89 | 1011.7 |
| 20260509063111 | 40 | 176 | 0.0 | 0.0 | 0.00 | 0.00 | 0.00 | 88 | 1011.8 |
| 20260509062608 | 40 | 176 | 0.0 | 0.0 | 0.00 | 0.00 | 0.00 | 88 | 1011.9 |
| 20260509062105 | 40 | 176 | 0.0 | 0.0 | 0.00 | 0.00 | 0.00 | 88 | 1011.8 |
| 20260509061602 | 39 | 176 | 0.0 | 0.0 | 0.00 | 0.00 | 0.00 | 88 | 1012.1 |
| 20260509061059 | 39 | 176 | 0.0 | 0.0 | 0.00 | 0.00 | 0.00 | 88 | 1012.2 |
| 20260509060557 | 39 | 176 | 0.9 | 0.9 | 0.00 | 0.00 | 0.00 | 88 | 1012.2 |
| 20260509060052 | 39 | 176 | 0.9 | 0.9 | 0.00 | 0.00 | 0.00 | 88 | 1012.1 |
| 20260509055548 | 39 | 176 | 0.0 | 0.0 | 0.00 | 0.00 | 0.00 | 88 | 1012.2 |
| 20260509055044 | 39 | 177 | 0.0 | 0.0 | 0.00 | 0.00 | 0.00 | 88 | 1012.3 |
| 20260509054541 | 39 | 177 | 0.0 | 0.0 | 0.00 | 0.00 | 0.00 | 88 | 1012.3 |
| 20260509054039 | 39 | 177 | 0.0 | 0.0 | 0.00 | 0.00 | 0.00 | 87 | 1012.2 |
| 20260509053538 | 39 | 177 | 0.0 | 0.0 | 0.00 | 0.00 | 0.00 | 87 | 1012.3 |
| 20260509053034 | 39 | 177 | 0.0 | 0.0 | 0.00 | 0.00 | 0.00 | 87 | 1012.2 |
| 20260509052532 | 39 | 177 | 0.0 | 0.0 | 0.00 | 0.00 | 0.00 | 87 | 1012.2 |
| 20260509052030 | 39 | 178 | 0.0 | 0.0 | 0.00 | 0.00 | 0.00 | 87 | 1012.2 |
| 20260509051527 | 39 | 179 | 0.0 | 0.0 | 0.00 | 0.00 | 0.00 | 87 | 1012.4 |
| 20260509051024 | 39 | 177 | 0.0 | 0.9 | 0.00 | 0.00 | 0.00 | 87 | 1012.4 |
| 20260509050521 | 39 | 166 | 0.9 | 0.9 | 0.00 | 0.00 | 0.00 | 87 | 1012.5 |